Tracking 18980 objects as of 19-Feb-2018
HD Live streaming from Space Station
objects crossing your sky now

FENGYUN 1C DEB

Track FENGYUN 1C DEB now!
10-day predictions


NORAD ID: 31239
Int'l Code: 1999-025BLV
Perigee: 841.1 km
Apogee: 914.7 km
Inclination: 98.9 °
Period: 102.4 minutes
Semi major axis: 7248 km
RCS: 0.0092 m2 (small)
Launch date: May 10, 1999
Source: People's Republic of China (PRC)
Launch site: Taiyaun Space Center, China (TSC)

Note: This is SATELLITE DEBRIS
aabbcc
Your satellite tracking list
Your tracking list is empty




NASA's NSSDC Master Catalog

Two Line Element Set (TLE):
1 31239U 99025BLV 18049.59266117 +.00000012 +00000-0 +33439-4 0  9991
2 31239 098.9012 084.5208 0050813 317.2431 174.2627 14.06678450558596
Source of the keplerian elements: AFSPC